• In Uzbekistan
  • List of Countries
  • For 7 days
  • Water Temperature
  • Satellite Maps
  • Weather Map
  • Weather Widgets
  • user-avatar
    Login

    Hourly Weather Safaga

    Today, 20 October, Saturday

    Time Temperature Precipitation Wind Pressure Humidity
    00:00 +24°C° 0 mm 1 mps 704 mmHg 56%
    01:00 +24°C° 0 mm 1 mps 703 mmHg 57%
    02:00 +23°C° 0 mm 1 mps 703 mmHg 58%
    03:00 +23°C° 0 mm 1 mps 703 mmHg 59%
    04:00 +22°C° 0 mm 1 mps 703 mmHg 60%
    05:00 +20°C° 0 mm 0 mps 703 mmHg 60%
    06:00 +23°C° 0 mm 1 mps 704 mmHg 55%
    07:00 +24°C° 0 mm 1 mps 704 mmHg 50%
    08:00 +26°C° 0 mm 1 mps 705 mmHg 44%
    09:00 +27°C° 0 mm 1 mps 705 mmHg 38%
    10:00 +29°C° 0 mm 1 mps 705 mmHg 32%
    11:00 +30°C° 0 mm 2 mps 705 mmHg 26%
    12:00 +31°C° 0 mm 2 mps 705 mmHg 25%
    13:00 +31°C° 0 mm 3 mps 705 mmHg 23%
    14:00 +33°C° 0 mm 3 mps 704 mmHg 22%
    15:00 +31°C° 0 mm 3 mps 704 mmHg 24%
    16:00 +31°C° 0 mm 3 mps 704 mmHg 26%
    17:00 +30°C° 0 mm 2 mps 704 mmHg 27%
    18:00 +29°C° 0 mm 2 mps 704 mmHg 31%
    19:00 +28°C° 0 mm 1 mps 704 mmHg 34%
    20:00 +27°C° 0 mm 1 mps 704 mmHg 38%
    21:00 +26°C° 0 mm 1 mps 704 mmHg 41%
    22:00 +26°C° 0 mm 1 mps 704 mmHg 44%
    23:00 +25°C° 0 mm 1 mps 704 mmHg 47%

    Tomorrow, 21 October, Sunday

    Time Temperature Precipitation Wind Pressure Humidity
    00:00 +25°C° 0 mm 1 mps 703 mmHg 48%
    01:00 +24°C° 0 mm 1 mps 703 mmHg 50%
    02:00 +24°C° 0 mm 1 mps 703 mmHg 52%
    03:00 +23°C° 0 mm 1 mps 703 mmHg 51%
    04:00 +23°C° 0 mm 1 mps 703 mmHg 51%
    05:00 +23°C° 0 mm 1 mps 703 mmHg 51%
    06:00 +24°C° 0 mm 1 mps 703 mmHg 46%
    07:00 +25°C° 0 mm 1 mps 704 mmHg 40%
    08:00 +27°C° 0 mm 1 mps 704 mmHg 35%
    09:00 +28°C° 0 mm 1 mps 705 mmHg 31%
    10:00 +30°C° 0 mm 1 mps 705 mmHg 27%
    11:00 +31°C° 0 mm 1 mps 705 mmHg 23%
    12:00 +31°C° 0 mm 1 mps 705 mmHg 22%
    13:00 +32°C° 0 mm 2 mps 704 mmHg 21%
    14:00 +34°C° 0 mm 2 mps 704 mmHg 21%
    15:00 +32°C° 0 mm 2 mps 704 mmHg 23%
    16:00 +31°C° 0 mm 2 mps 704 mmHg 25%
    17:00 +30°C° 0 mm 2 mps 704 mmHg 27%
    18:00 +29°C° 0 mm 2 mps 704 mmHg 31%
    19:00 +29°C° 0 mm 2 mps 704 mmHg 34%
    20:00 +28°C° 0 mm 2 mps 704 mmHg 38%
    21:00 +27°C° 0 mm 2 mps 704 mmHg 38%
    22:00 +27°C° 0 mm 2 mps 704 mmHg 39%
    23:00 +26°C° 0 mm 2 mps 704 mmHg 40%

    Day after tomorrow, 22 October, Monday

    Time Temperature Precipitation Wind Pressure Humidity
    00:00 +26°C° 0 mm 1 mps 704 mmHg 39%
    01:00 +25°C° 0 mm 1 mps 704 mmHg 38%
    02:00 +25°C° 0 mm 1 mps 704 mmHg 38%
    03:00 +25°C° 0 mm 1 mps 704 mmHg 37%
    04:00 +24°C° 0 mm 1 mps 703 mmHg 36%
    05:00 +24°C° 0 mm 1 mps 703 mmHg 36%
    06:00 +25°C° 0 mm 1 mps 704 mmHg 32%
    07:00 +27°C° 0 mm 1 mps 705 mmHg 28%
    08:00 +28°C° 0 mm 2 mps 705 mmHg 24%
    09:00 +30°C° 0 mm 2 mps 705 mmHg 22%
    10:00 +32°C° 0 mm 2 mps 706 mmHg 20%
    11:00 +34°C° 0 mm 3 mps 706 mmHg 18%
    12:00 +35°C° 0 mm 3 mps 705 mmHg 17%
    13:00 +35°C° 0 mm 3 mps 705 mmHg 17%
    14:00 +36°C° 0 mm 3 mps 704 mmHg 16%
    15:00 +35°C° 0 mm 3 mps 704 mmHg 18%
    16:00 +34°C° 0 mm 2 mps 704 mmHg 20%
    17:00 +32°C° 0 mm 2 mps 704 mmHg 22%
    18:00 +31°C° 0 mm 2 mps 704 mmHg 24%
    19:00 +30°C° 0 mm 2 mps 704 mmHg 27%
    20:00 +29°C° 0 mm 2 mps 704 mmHg 30%
    21:00 +28°C° 0 mm 2 mps 704 mmHg 29%
    22:00 +28°C° 0 mm 2 mps 704 mmHg 29%
    23:00 +27°C° 0 mm 1 mps 704 mmHg 29%

    23 October, Tuesday

    Time Temperature Precipitation Wind Pressure Humidity
    00:00 +27°C° 0 mm 1 mps 704 mmHg 29%
    01:00 +26°C° 0 mm 1 mps 704 mmHg 30%
    02:00 +23°C° 0 mm 0 mps 703 mmHg 30%
    03:00 +23°C° 0 mm 0 mps 703 mmHg 31%
    04:00 +23°C° 0 mm 0 mps 703 mmHg 32%
    05:00 +22°C° 0 mm 0 mps 703 mmHg 33%
    06:00 +24°C° 0 mm 0 mps 704 mmHg 29%
    07:00 +28°C° 0 mm 1 mps 704 mmHg 25%
    08:00 +30°C° 0 mm 1 mps 705 mmHg 22%
    09:00 +31°C° 0 mm 1 mps 705 mmHg 20%
    10:00 +32°C° 0 mm 1 mps 705 mmHg 17%
    11:00 +35°C° 0 mm 2 mps 705 mmHg 15%
    12:00 +35°C° 0 mm 2 mps 705 mmHg 15%
    13:00 +36°C° 0 mm 3 mps 704 mmHg 14%
    14:00 +36°C° 0 mm 3 mps 704 mmHg 14%
    15:00 +35°C° 0 mm 2 mps 704 mmHg 16%
    16:00 +34°C° 0 mm 2 mps 704 mmHg 18%
    17:00 +32°C° 0 mm 1 mps 703 mmHg 19%
    18:00 +31°C° 0 mm 1 mps 704 mmHg 21%
    19:00 +30°C° 0 mm 1 mps 704 mmHg 23%
    20:00 +29°C° 0 mm 1 mps 704 mmHg 25%
    21:00 +28°C° 0 mm 1 mps 704 mmHg 26%
    22:00 +28°C° 0 mm 1 mps 703 mmHg 27%
    23:00 +27°C° 0 mm 1 mps 703 mmHg 27%

    24 October, Wednesday

    Time Temperature Precipitation Wind Pressure Humidity
    00:00 +27°C° 0 mm 1 mps 703 mmHg 27%
    01:00 +24°C° 0 mm 0 mps 703 mmHg 28%
    02:00 +23°C° 0 mm 0 mps 702 mmHg 28%
    03:00 +23°C° 0 mm 0 mps 702 mmHg 28%
    04:00 +23°C° 0 mm 0 mps 702 mmHg 29%
    05:00 +24°C° 0 mm 1 mps 702 mmHg 29%
    06:00 +26°C° 0 mm 1 mps 703 mmHg 27%
    07:00 +28°C° 0 mm 1 mps 703 mmHg 24%
    08:00 +30°C° 0 mm 1 mps 704 mmHg 21%
    09:00 +31°C° 0 mm 1 mps 704 mmHg 20%
    10:00 +32°C° 0 mm 2 mps 704 mmHg 18%
    11:00 +34°C° 0 mm 3 mps 704 mmHg 16%
    12:00 +35°C° 0 mm 3 mps 703 mmHg 17%
    13:00 +35°C° 0 mm 4 mps 703 mmHg 17%
    14:00 +35°C° 0 mm 4 mps 702 mmHg 18%
    15:00 +35°C° 0 mm 4 mps 702 mmHg 21%
    16:00 +34°C° 0 mm 3 mps 702 mmHg 24%
    17:00 +33°C° 0 mm 3 mps 702 mmHg 26%
    18:00 +31°C° 0 mm 2 mps 702 mmHg 31%
    19:00 +29°C° 0 mm 2 mps 702 mmHg 35%
    20:00 +28°C° 0 mm 1 mps 702 mmHg 39%
    21:00 +28°C° 0 mm 1 mps 702 mmHg 41%
    22:00 +27°C° 0 mm 1 mps 702 mmHg 43%
    23:00 +27°C° 0 mm 1 mps 702 mmHg 44%

    25 October, Thursday

    Time Temperature Precipitation Wind Pressure Humidity
    00:00 +26°C° 0 mm 1 mps 702 mmHg 44%
    01:00 +26°C° 0 mm 1 mps 702 mmHg 43%
    02:00 +26°C° 0 mm 1 mps 701 mmHg 42%
    03:00 +25°C° 0 mm 1 mps 702 mmHg 45%
    04:00 +24°C° 0 mm 1 mps 702 mmHg 48%
    05:00 +24°C° 0 mm 1 mps 702 mmHg 50%
    06:00 +25°C° 0 mm 1 mps 702 mmHg 48%
    07:00 +26°C° 0 mm 1 mps 703 mmHg 45%
    08:00 +25°C° 0 mm 0 mps 703 mmHg 43%
    09:00 +29°C° 0 mm 1 mps 703 mmHg 38%
    10:00 +30°C° 0 mm 2 mps 703 mmHg 32%
    11:00 +32°C° 0 mm 2 mps 703 mmHg 27%
    12:00 +33°C° 0 mm 3 mps 703 mmHg 25%
    13:00 +34°C° 0 mm 4 mps 702 mmHg 23%
    14:00 +34°C° 0 mm 5 mps 702 mmHg 22%
    15:00 +34°C° 0 mm 5 mps 702 mmHg 23%
    16:00 +33°C° 0 mm 4 mps 702 mmHg 25%
    17:00 +31°C° 0 mm 3 mps 702 mmHg 26%
    18:00 +30°C° 0 mm 3 mps 702 mmHg 29%
    19:00 +30°C° 0 mm 2 mps 702 mmHg 32%
    20:00 +29°C° 0 mm 2 mps 703 mmHg 35%
    21:00 +28°C° 0 mm 2 mps 703 mmHg 35%
    22:00 +28°C° 0 mm 2 mps 703 mmHg 36%
    23:00 +27°C° 0 mm 2 mps 703 mmHg 36%
    Show more